| time (UTC) | temp F | wind direction | speed MPH | gust MPH | rain 1hr in | rain 24hr in | rain mn in | humidity % | barometer mb |
| 20260505200018 | 84 | 345 | 10.0 | 24.0 | 0.00 | 0.00 | 0.00 | 29 | 1005.0 |
| 20260505194558 | 82 | 284 | 11.0 | 22.0 | 0.00 | 0.00 | 0.00 | 31 | 1005.4 |
| 20260505193049 | 83 | 275 | 11.0 | 26.0 | 0.00 | 0.00 | 0.00 | 29 | 1005.2 |
| 20260505191543 | 83 | 302 | 11.0 | 21.0 | 0.00 | 0.00 | 0.00 | 32 | 1005.7 |
| 20260505190017 | 82 | 240 | 8.0 | 17.0 | 0.00 | 0.00 | 0.00 | 35 | 1006.0 |
| 20260505184551 | 82 | 245 | 11.0 | 21.0 | 0.00 | 0.00 | 0.00 | 34 | 1006.3 |
| 20260505183055 | 82 | 257 | 8.0 | 27.0 | 0.00 | 0.00 | 0.00 | 35 | 1006.4 |
| 20260505181532 | 81 | 163 | 11.0 | 18.0 | 0.00 | 0.00 | 0.00 | 36 | 1006.3 |
| 20260505180019 | 81 | 171 | 11.0 | 20.0 | 0.00 | 0.00 | 0.00 | 38 | 1006.5 |
| 20260505174506 | 80 | 202 | 8.0 | 15.0 | 0.00 | 0.00 | 0.00 | 39 | 1006.6 |
| 20260505173051 | 80 | 198 | 7.0 | 21.0 | 0.00 | 0.00 | 0.00 | 39 | 1006.9 |
| 20260505171531 | 80 | 217 | 7.0 | 16.0 | 0.00 | 0.00 | 0.00 | 39 | 1007.0 |
| 20260505170009 | 79 | 183 | 7.0 | 17.0 | 0.00 | 0.00 | 0.00 | 40 | 1007.1 |
| 20260505164624 | 79 | 232 | 8.0 | 15.0 | 0.00 | 0.00 | 0.00 | 40 | 1007.2 |
| 20260505163031 | 78 | 295 | 5.0 | 19.0 | 0.00 | 0.00 | 0.00 | 41 | 1007.5 |
| 20260505161521 | 77 | 175 | 9.0 | 18.0 | 0.00 | 0.00 | 0.00 | 42 | 1007.8 |
| 20260505153059 | 75 | 279 | 6.0 | 14.0 | 0.00 | 0.00 | 0.00 | 45 | 1008.5 |
| 20260505151531 | 74 | 184 | 6.0 | 11.0 | 0.00 | 0.00 | 0.00 | 45 | 1008.5 |
| 20260505130117 | 66 | 208 | 4.0 | 11.0 | 0.00 | 0.00 | 0.00 | 55 | 1008.7 |
| 20260505124535 | 65 | 257 | 4.0 | 13.0 | 0.00 | 0.00 | 0.00 | 57 | 1008.6 |
| 20260505123008 | 63 | 284 | 2.0 | 8.0 | 0.00 | 0.00 | 0.00 | 60 | 1008.8 |
| 20260505121548 | 62 | 295 | 3.0 | 7.0 | 0.00 | 0.00 | 0.00 | 63 | 1008.9 |
| 20260505120042 | 60 | 227 | 2.0 | 6.0 | 0.00 | 0.00 | 0.00 | 65 | 1009.0 |
| 20260505114523 | 60 | 119 | 1.0 | 7.0 | 0.00 | 0.00 | 0.00 | 66 | 1008.5 |
| 20260505113010 | 60 | 205 | 1.0 | 8.0 | 0.00 | 0.00 | 0.00 | 67 | 1008.7 |
| 20260505111601 | 60 | 246 | 1.0 | 4.0 | 0.00 | 0.00 | 0.00 | 65 | 1008.8 |
| 20260505110126 | 59 | 175 | 2.0 | 7.0 | 0.00 | 0.00 | 0.00 | 66 | 1009.1 |
| 20260505101535 | 57 | 217 | 0.0 | 5.0 | 0.00 | 0.00 | 0.00 | 69 | 1008.8 |
| 20260505100004 | 57 | 209 | 1.0 | 3.0 | 0.00 | 0.00 | 0.00 | 69 | 1008.3 |
| 20260505094547 | 57 | 269 | 2.0 | 4.0 | 0.00 | 0.00 | 0.00 | 68 | 1008.2 |
| 20260505093035 | 57 | 194 | 2.0 | 6.0 | 0.00 | 0.00 | 0.00 | 69 | 1008.0 |
| 20260505091519 | 56 | 249 | 1.0 | 4.0 | 0.00 | 0.00 | 0.00 | 70 | 1008.1 |
| 20260505090159 | 55 | 182 | 1.0 | 4.0 | 0.00 | 0.00 | 0.00 | 71 | 1008.0 |
| 20260505084555 | 54 | 213 | 0.0 | 3.0 | 0.00 | 0.00 | 0.00 | 73 | 1008.0 |
| 20260505083037 | 54 | 213 | 0.0 | 2.0 | 0.00 | 0.00 | 0.00 | 72 | 1008.1 |
| 20260505081545 | 55 | 213 | 0.0 | 0.0 | 0.00 | 0.00 | 0.00 | 69 | 1008.0 |
| 20260505080015 | 57 | 213 | 0.0 | 3.0 | 0.00 | 0.00 | 0.00 | 66 | 1008.1 |
| 20260505074626 | 57 | 215 | 0.0 | 3.0 | 0.00 | 0.00 | 0.00 | 65 | 1008.0 |
| 20260505073049 | 57 | 224 | 0.0 | 3.0 | 0.00 | 0.00 | 0.00 | 65 | 1008.1 |
| 20260505071528 | 58 | 236 | 0.0 | 3.0 | 0.00 | 0.00 | 0.00 | 64 | 1008.0 |
| 20260505070127 | 58 | 236 | 0.0 | 3.0 | 0.00 | 0.00 | 0.00 | 63 | 1008.0 |
| 20260505064543 | 59 | 236 | 0.0 | 2.0 | 0.00 | 0.00 | 0.00 | 61 | 1007.9 |
| 20260505063029 | 59 | 237 | 0.0 | 3.0 | 0.00 | 0.00 | 0.00 | 60 | 1008.0 |
| 20260505061523 | 59 | 215 | 1.0 | 4.0 | 0.00 | 0.00 | 0.00 | 60 | 1008.1 |
| 20260505060032 | 60 | 205 | 1.0 | 4.0 | 0.00 | 0.00 | 0.00 | 59 | 1008.2 |
| 20260505054503 | 60 | 233 | 2.0 | 5.0 | 0.00 | 0.00 | 0.00 | 58 | 1008.2 |
| 20260505053100 | 61 | 238 | 1.0 | 6.0 | 0.00 | 0.00 | 0.00 | 57 | 1008.3 |
| 20260505053002 | 61 | 236 | 0.0 | 6.0 | 0.00 | 0.00 | 0.00 | 57 | 1008.3 |
| 20260505051558 | 61 | 190 | 1.0 | 6.0 | 0.00 | 0.00 | 0.00 | 56 | 1008.4 |
| 20260505041628 | 62 | 212 | 3.0 | 8.0 | 0.00 | 0.00 | 0.00 | 52 | 1008.6 |
| 20260505040040 | 62 | 192 | 2.0 | 8.0 | 0.00 | 0.00 | 0.00 | 51 | 1008.6 |
| 20260505034518 | 62 | 207 | 2.0 | 9.0 | 0.00 | 0.00 | 0.00 | 50 | 1008.7 |
| 20260505033013 | 63 | 209 | 2.0 | 9.0 | 0.00 | 0.00 | 0.00 | 49 | 1008.6 |
| 20260505031551 | 63 | 200 | 3.0 | 9.0 | 0.00 | 0.00 | 0.00 | 48 | 1008.7 |
| 20260505030034 | 64 | 192 | 4.0 | 10.0 | 0.00 | 0.00 | 0.00 | 48 | 1008.7 |
| 20260505024514 | 64 | 174 | 4.0 | 8.0 | 0.00 | 0.00 | 0.00 | 48 | 1008.8 |
| 20260505023007 | 64 | 192 | 3.0 | 8.0 | 0.00 | 0.00 | 0.00 | 47 | 1008.8 |
| 20260505021555 | 65 | 199 | 3.0 | 8.0 | 0.00 | 0.00 | 0.00 | 47 | 1008.9 |
| 20260505020042 | 65 | 219 | 3.0 | 9.0 | 0.00 | 0.00 | 0.00 | 46 | 1008.8 |
| 20260505014521 | 65 | 191 | 3.0 | 15.0 | 0.00 | 0.00 | 0.00 | 47 | 1008.7 |
| 20260505013002 | 65 | 265 | 5.0 | 12.0 | 0.00 | 0.00 | 0.00 | 47 | 1008.6 |
| 20260505011550 | 65 | 198 | 2.0 | 9.0 | 0.00 | 0.00 | 0.00 | 47 | 1008.4 |
| 20260505010039 | 64 | 173 | 2.0 | 5.0 | 0.00 | 0.00 | 0.00 | 48 | 1008.2 |
| 20260505004528 | 64 | 173 | 1.0 | 4.0 | 0.00 | 0.00 | 0.00 | 50 | 1008.0 |
| 20260505003005 | 65 | 173 | 1.0 | 4.0 | 0.00 | 0.00 | 0.00 | 49 | 1007.7 |
| 20260505001502 | 65 | 174 | 2.0 | 6.0 | 0.00 | 0.00 | 0.00 | 48 | 1007.5 |
| 20260505000122 | 66 | 188 | 3.0 | 8.0 | 0.00 | 0.00 | 0.00 | 46 | 1007.2 |
| 20260504234537 | 70 | 183 | 2.0 | 12.0 | 0.00 | 0.00 | 0.00 | 38 | 1007.0 |
| 20260504233031 | 71 | 246 | 3.0 | 11.0 | 0.00 | 0.00 | 0.00 | 34 | 1006.8 |
| 20260504231513 | 71 | 263 | 5.0 | 13.0 | 0.00 | 0.00 | 0.00 | 34 | 1006.6 |
| 20260504230005 | 71 | 294 | 7.0 | 14.0 | 0.00 | 0.00 | 0.00 | 33 | 1006.4 |
| 20260504224504 | 72 | 267 | 5.0 | 15.0 | 0.00 | 0.00 | 0.00 | 33 | 1006.5 |
| 20260504223055 | 72 | 263 | 5.0 | 11.0 | 0.00 | 0.00 | 0.00 | 32 | 1006.5 |
| 20260504221553 | 72 | 195 | 5.0 | 16.0 | 0.00 | 0.00 | 0.00 | 32 | 1006.4 |
| 20260504220045 | 72 | 245 | 5.0 | 13.0 | 0.00 | 0.00 | 0.00 | 32 | 1006.7 |
| 20260504214538 | 72 | 237 | 7.0 | 12.0 | 0.00 | 0.00 | 0.00 | 32 | 1006.8 |
| 20260504213025 | 73 | 271 | 4.0 | 10.0 | 0.00 | 0.00 | 0.00 | 32 | 1006.9 |
| 20260504211504 | 73 | 275 | 7.0 | 15.0 | 0.00 | 0.00 | 0.00 | 31 | 1007.0 |
| 20260504210121 | 73 | 271 | 7.0 | 17.0 | 0.00 | 0.00 | 0.00 | 31 | 1007.0 |
| 20260504204545 | 74 | 215 | 6.0 | 12.0 | 0.00 | 0.00 | 0.00 | 31 | 1007.0 |
| 20260504203018 | 72 | 264 | 3.0 | 13.0 | 0.00 | 0.00 | 0.00 | 31 | 1006.9 |
| 20260504201514 | 73 | 215 | 2.0 | 12.0 | 0.00 | 0.00 | 0.00 | 31 | 1007.1 |